Probability
0 0 0 0 0 0 0 0 0 0 0 0 0 0 0 0 0 0 0 0 0 0 0 0 0 0 0 0 1 1 0 0 0 1 0 0 0 0 0 0 0 0 0 0
0 0 0 0 0 0 0 0 0 0 0 0 0 0 0 0 0 0 0 0 0 0 0 0 0 0 0 1 2 2 1 1 1 1 0 0 0 0 0 0 0 0 0 0
0 0 0 0 0 0 0 0 0 0 0 0 0 0 0 0 0 0 0 0 0 0 0 0 0 0 0 1 2 3 3 2 2 1 1 0 0 0 0 0 0 0 0 0
0 0 0 0 0 0 0 0 0 0 0 1 0 0 0 0 0 0 0 0 0 0 0 0 0 0 0 1 2 3 3 3 3 3 2 1 1 0 0 0 0 0 0 0
0 0 0 0 0 0 0 0 0 0 0 0 0 0 0 0 0 0 0 0 0 0 0 0 0 0 0 0 1 2 3 3 4 3 3 3 2 1 0 0 0 0 0 0
0 0 0 0 0 0 0 0 0 0 0 0 0 0 0 0 0 0 0 0 0 0 0 0 0 0 0 0 0 1 2 3 4 3 3 3 3 2 1 0 0 0 0 0
0 0 0 0 0 0 0 0 0 0 0 0 0 0 0 0 0 0 0 0 0 0 0 0 0 0 0 0 0 0 1 3 4 4 3 3 3 3 1 0 0 0 0 0
0 0 0 0 0 0 0 0 0 0 0 0 0 0 0 0 0 0 0 0 0 0 0 0 0 0 0 0 0 0 1 2 3 3 3 2 3 3 2 1 0 0 0 0
0 0 0 0 0 0 0 0 0 0 0 0 0 0 0 0 0 0 0 0 0 0 0 0 0 0 0 0 0 0 0 1 2 2 1 1 2 3 3 1 0 0 0 0
0 0 0 0 0 0 0 0 0 0 0 0 0 0 0 0 0 0 0 0 0 0 0 0 0 0 0 0 0 0 0 0 1 1 0 0 0 1 1 1 0 0 0 0
0 0 0 0 0 0 0 0 0 0 0 0 0 0 0 0 0 0 0 0 0 0 0 0 0 0 0 0 0 0 0 0 0 0 0 0 0 0 0 0 0 0 0 0
0 0 0 0 0 0 0 0 0 0 0 0 0 0 0 0 0 0 0 0 0 0 0 0 0 0 0 0 0 0 0 0 0 0 0 0 0 0 0 0 0 0 0 0
0 0 0 0 0 0 0 0 0 0 0 0 0 0 0 0 0 0 0 0 0 0 0 0 0 0 0 0 0 0 0 0 0 0 0 0 0 0 0 0 0 0 0 0
0 0 0 0 0 0 0 0 0 0 0 0 0 0 0 0 0 0 0 0 0 0 0 0 0 0 0 0 0 0 0 0 0 0 0 0 0 0 0 0 0 0 0 0
0 0 0 0 0 0 0 0 0 0 0 0 0 0 0 0 0 0 0 0 0 0 0 0 0 0 0 0 0 0 0 0 0 0 0 0 0 0 0 0 0 0 0 0
0 0 0 0 0 0 0 0 0 0 0 0 0 0 0 0 0 0 0 0 0 0 0 0 0 0 0 0 0 0 0 0 0 0 0 0 0 0 0 0 0 0 0 0
0 0 0 0 0 0 0 0 0 0 0 0 0 0 0 0 0 0 0 0 0 0 0 0 0 0 0 0 0 0 0 0 0 0 0 0 0 0 0 0 0 0 0 0
0 0 0 0 0 0 0 0 0 0 0 0 0 0 0 0 0 0 0 0 0 0 0 0 0 0 0 0 0 0 0 0 0 0 0 0 0 0 0 0 0 0 0 0
0 0 0 0 0 0 0 0 0 0 0 0 0 0 0 0 0 0 0 0 0 0 0 0 0 0 0 0 0 0 0 0 0 0 0 0 0 0 0 0 0 0 0 0
0 0 0 0 0 0 0 0 0 0 0 0 0 0 0 0 0 0 0 0 0 0 0 0 0 0 0 0 0 0 0 0 0 0 0 0 0 0 0 0 0 0 0 0
0 0 0 0 0 0 0 0 0 0 0 0 0 0 0 0 0 0 0 0 0 0 0 0 0 0 0 0 0 0 0 0 0 0 0 0 0 0 0 0 0 0 0 0
0 0 0 0 0 0 0 0 0 0 0 0 0 0 0 0 0 0 0 0 0 0 0 0 0 0 0 0 0 0 0 0 0 0 0 0 0 0 0 0 0 0 0 0
0 0 0 0 0 0 0 0 0 0 0 0 0 0 0 0 0 0 0 0 0 0 0 0 0 0 0 0 0 0 0 0 0 0 0 0 0 0 0 0 0 0 0 0
0 0 0 0 0 0 0 0 0 0 0 0 0 0 0 0 0 0 0 0 0 0 0 0 0 0 0 0 0 0 0 0 0 0 0 0 0 0 0 0 0 0 0 0
0 0 0 0 0 0 0 0 0 0 0 0 0 0 0 0 0 0 0 0 0 0 0 0 0 0 0 0 0 0 0 0 0 0 0 0 0 0 0 0 0 0 0 0
0 0 0 0 0 0 0 0 0 0 0 0 0 0 0 0 0 0 0 0 0 0 0 0 0 0 0 0 0 0 0 0 0 0 0 0 0 0 0 0 0 0 0 0
Wind_Speed
2 3 7 9 9 5 4 4 5 5 3 3 8 10 10 9 7 8 8 8 9 11 10 8 8 8 8 8 10 11 11 11 9 7 7 7 7 6 5 5 7 7 7 7
2 7 7 4 5 6 5 5 5 4 3 3 6 11 10 10 10 10 11 11 11 10 9 8 7 6 8 9 10 11 11 11 10 9 7 5 5 4 4 4 5 7 7 7
8 5 5 5 5 7 8 7 6 4 4 4 5 9 7 8 8 9 10 10 10 11 11 9 7 7 7 8 10 10 10 10 11 9 5 3 2 2 3 4 5 6 7 7
6 5 3 5 7 7 9 6 5 4 2 4 2 8 7 6 8 9 10 9 10 10 9 8 7 6 7 8 7 7 8 9 9 9 8 9 8 7 8 6 5 5 6 6
6 4 5 7 9 7 5 3 4 5 4 5 4 6 9 4 7 9 9 10 10 10 8 8 7 6 5 5 5 5 6 6 7 8 10 10 8 6 4 3 4 4 4 6
5 3 4 5 4 5 3 1 1 1 1 8 8 8 10 6 9 7 8 8 8 7 6 5 3 2 2 1 2 4 5 5 5 7 8 9 9 8 6 6 6 5 4 4
3 4 3 2 1 2 4 4 1 2 4 8 5 7 11 8 8 8 8 7 7 4 3 2 2 2 2 2 2 2 4 4 4 5 7 8 8 9 9 8 7 6 4 4
3 5 5 4 5 6 7 8 7 6 6 4 3 10 10 7 6 5 5 4 3 2 2 2 3 3 2 2 2 2 3 3 4 4 5 5 6 5 5 7 6 6 6 5
5 6 3 5 4 6 6 7 5 3 1 3 6 7 9 5 4 4 3 3 3 2 2 1 1 1 1 2 2 3 3 2 3 4 4 4 5 5 5 5 5 5 4 4
3 4 4 3 1 3 4 5 3 5 4 5 6 6 6 5 5 4 3 3 4 3 2 1 1 1 0 1 0 0 1 2 2 3 3 3 3 4 4 4 4 4 4 4
2 4 3 1 6 7 4 4 3 4 4 5 5 8 6 6 5 4 4 4 3 3 2 1 1 1 0 1 1 0 0 0 0 1 2 2 2 3 3 4 4 4 4 4
2 3 4 6 5 4 5 6 6 5 4 4 4 9 3 2 3 2 3 4 3 2 2 1 1 1 1 1 0 0 0 1 1 1 1 2 2 2 2 3 3 3 4 4
2 2 1 3 3 1 4 5 6 4 3 5 6 10 3 3 4 3 3 3 3 3 2 1 1 1 1 1 1 1 1 1 0 0 0 0 1 1 2 2 2 3 3 3
2 3 5 8 6 4 5 8 8 7 6 7 10 11 8 6 5 5 5 4 3 3 2 1 1 1 1 2 2 2 2 1 0 1 1 1 1 2 2 2 2 2 3 3
3 4 5 7 7 5 8 10 11 13 12 10 11 11 12 8 6 5 4 4 3 3 3 2 2 2 2 2 2 2 2 2 1 1 2 2 2 1 1 1 1 2 2 2
3 3 3 6 7 7 9 11 13 15 13 13 13 16 10 7 5 5 4 3 3 3 3 3 3 3 3 3 3 3 3 2 1 2 3 2 1 1 1 1 1 2 2 2
3 2 2 5 4 3 9 11 10 9 9 10 15 16 6 4 5 6 5 4 3 4 3 3 3 4 4 4 3 3 3 1 1 2 2 2 2 2 2 1 2 2 2 2
5 4 2 2 1 8 9 5 8 9 10 10 11 10 7 7 6 4 3 3 3 4 4 4 4 4 4 4 3 2 1 1 1 2 2 2 2 2 2 2 2 2 2 2
8 6 4 2 4 8 9 5 6 8 9 9 11 11 7 5 2 4 3 3 4 4 4 4 4 4 3 3 3 1 1 1 1 2 2 2 2 3 2 3 3 2 2 2
6 6 5 4 4 8 9 5 3 3 7 6 6 7 5 1 3 7 4 3 3 3 2 2 3 3 3 3 2 1 2 2 3 3 3 2 2 3 4 4 3 2 2 2
4 5 7 7 7 10 10 5 2 5 7 3 3 4 3 5 7 5 3 2 2 2 2 2 2 2 3 3 2 1 2 3 4 3 2 2 2 3 3 3 2 2 2 2
7 6 6 6 7 11 6 3 6 6 3 2 3 3 4 5 5 4 3 3 3 3 3 2 2 3 3 3 2 2 3 4 3 2 2 2 2 2 1 2 2 2 3 3
8 9 7 10 10 6 4 6 5 3 4 4 3 4 4 4 5 5 4 3 3 3 3 2 2 3 3 3 2 3 4 4 3 2 2 2 2 1 1 2 3 2 3 3
6 4 5 7 9 7 6 6 6 5 6 6 5 4 4 6 6 5 4 4 3 3 3 2 2 3 4 3 3 3 4 3 2 2 2 2 1 0 0 1 2 2 3 3
7 5 5 8 8 6 7 8 8 6 6 6 5 5 5 5 5 5 4 4 3 3 2 2 2 3 4 4 3 4 3 2 2 2 2 1 1 1 1 1 1 2 2 3
8 9 9 10 9 7 8 5 5 6 7 7 7 6 5 5 5 5 4 4 3 3 2 2 2 3 4 3 3 3 3 2 1 2 1 1 1 1 1 1 1 2 1 1
Wind_Direction
178 168 206 211 211 221 203 209 237 245 265 234 243 256 259 265 264 259 257 253 250 250 251 244 231 220 210 204 201 199 196 195 185 184 189 192 201 201 201 204 202 198 198 197
167 231 227 223 228 239 239 245 255 278 291 254 265 268 259 250 244 243 247 251 251 253 259 253 241 224 211 206 204 202 199 193 190 193 193 191 188 193 199 197 202 203 201 199
204 234 209 204 223 229 238 226 229 246 308 308 303 286 261 255 246 250 248 247 250 246 248 248 239 227 215 210 205 200 198 194 193 188 170 147 134 138 184 203 209 208 202 201
235 249 220 212 222 209 240 230 226 236 244 271 242 279 269 254 261 255 254 252 251 252 248 245 237 232 220 215 206 200 196 193 191 183 177 178 188 198 206 204 204 200 201 203
228 220 214 222 223 202 227 218 217 228 223 260 237 254 274 259 257 257 252 251 252 252 247 242 233 225 220 205 192 189 185 186 186 185 188 190 198 204 197 185 187 199 205 205
239 239 214 221 234 204 196 83 9 324 194 246 221 219 268 226 226 245 253 257 257 252 245 244 236 211 216 186 177 176 172 183 185 186 188 192 196 194 185 191 197 203 208 208
261 262 245 188 178 190 160 135 168 249 225 242 209 219 251 233 232 232 247 259 262 253 233 221 211 196 203 187 171 174 171 182 185 187 193 197 198 195 196 199 201 200 204 210
202 251 218 202 194 194 199 180 186 205 218 256 217 230 252 248 249 251 260 275 306 298 248 216 215 208 201 188 176 174 181 187 181 184 197 198 193 195 203 203 200 202 207 210
196 247 257 230 209 172 180 206 192 178 239 248 244 264 291 277 277 283 294 311 316 307 298 266 253 202 193 186 186 187 186 194 195 191 186 189 191 194 199 200 200 204 204 197
178 241 263 259 219 215 186 166 154 176 191 233 259 250 244 266 261 267 273 283 297 303 324 334 328 337 300 217 213 121 163 191 204 193 190 188 194 196 194 190 196 197 198 192
191 211 275 226 202 200 179 187 186 187 193 199 246 257 228 224 232 248 271 278 274 267 267 281 291 291 339 68 111 121 46 102 187 205 200 186 191 188 182 187 197 196 193 188
207 194 234 242 252 233 202 197 179 189 227 220 242 264 265 259 266 258 276 288 287 276 276 288 302 345 13 11 0 206 221 235 242 216 196 201 193 180 182 193 196 184 184 186
176 186 250 311 302 267 217 215 207 204 198 209 221 261 310 352 332 305 284 285 292 289 293 325 351 343 318 311 306 275 236 233 253 131 151 191 202 193 200 199 185 174 173 171
199 208 206 222 238 220 236 234 221 205 220 232 232 254 288 302 309 309 302 291 293 285 279 295 300 289 281 276 271 275 278 252 177 153 168 210 231 215 204 189 174 173 169 169
168 220 236 260 269 255 249 242 227 223 221 227 246 251 260 268 274 281 285 290 297 289 280 269 270 281 282 283 280 273 275 263 203 188 206 228 228 204 173 169 169 161 160 170
184 215 230 263 261 257 261 251 234 231 230 236 255 263 257 259 263 271 274 279 283 282 283 288 289 291 285 277 274 274 275 270 218 201 222 235 217 183 178 184 172 162 168 170
215 188 208 259 276 293 256 235 221 221 221 218 240 254 262 258 254 261 266 274 270 273 279 278 277 276 276 272 259 253 260 262 226 228 231 226 219 210 204 184 176 190 190 177
201 190 205 264 24 239 246 220 209 221 237 230 243 259 255 238 240 247 247 257 279 290 292 294 292 289 288 288 283 285 301 270 240 246 251 239 219 222 213 192 202 211 195 187
202 190 190 195 240 273 286 254 204 209 250 237 242 258 260 248 274 277 257 240 245 259 269 277 284 287 295 302 302 301 303 297 276 264 261 248 221 218 213 212 215 212 195 194
196 185 188 188 207 241 253 258 231 174 262 253 235 254 264 260 263 269 274 260 261 272 280 291 309 319 323 326 335 321 296 291 274 267 264 262 236 218 217 220 217 208 197 195
167 197 212 212 225 254 258 266 131 185 246 268 237 252 252 227 237 263 289 293 288 289 299 320 331 331 322 329 340 306 292 282 286 290 286 276 250 236 226 216 205 185 177 166
185 190 203 192 215 248 244 167 186 222 258 268 261 256 249 256 269 276 277 282 295 307 316 325 328 323 331 340 337 302 289 299 311 310 300 285 268 247 217 194 190 173 166 165
208 198 194 198 218 239 209 214 236 241 253 258 252 258 257 265 268 271 272 272 280 287 300 311 308 314 328 342 336 295 296 312 313 311 296 289 285 258 201 184 180 172 172 174
245 216 208 239 251 251 255 260 268 256 251 255 250 256 261 263 266 268 268 271 275 279 285 300 308 306 313 329 328 299 302 310 297 283 289 290 264 246 157 168 173 176 181 186
220 201 215 243 259 272 260 244 247 257 267 274 273 263 258 259 265 262 264 265 266 276 288 288 275 278 290 309 315 320 325 322 297 282 277 271 243 192 178 166 180 191 203 198
207 205 214 239 233 231 252 245 240 248 258 262 267 273 268 249 253 262 263 266 265 270 280 283 277 274 284 297 305 315 317 302 269 271 271 251 228 204 179 162 61 50 63 70